Zurück zum Katalog

STARLINK-31046

AktivKommunikationVLEO
NORAD 58552·PAYLOAD·🇺🇸 United States

Gestartet Dec 8, 2023 von Vandenberg Space Force Base

Loading…

Nächste Überflüge (nächste 24 Stunden)

TLE

AktuellSource: CelesTrak SupGP

Epoche: Sep 14, 2026, 14:36 UTC

1 58552C 23192X   26257.60881944 -.00021166  00000+0 -62552-3 0  2571
2 58552  53.1582 261.4366 0001282  82.3047 263.1176 15.34392584    17

Verfolge STARLINK-31046 in Echtzeit mit AllMySat

Download on the App Store